Temp
77 84 81 74 60 60 57 60 70 67 67 69 75 71 65 67 63 54 73 77 80 77 77 75 74 74 74 74 73 73 72 73 73 72 72 72 71 71 71 70 70 71 72 72 72 71 71 70 70
79 81 74 68 57 54 57 66 65 68 71 74 73 72 68 61 70 69 70 79 81 79 79 76 72 73 73 73 72 72 72 72 72 71 71 71 71 70 70 70 70 71 71 72 71 71 71 71 70
79 78 65 61 56 54 55 66 67 70 72 71 67 71 68 65 71 71 77 80 81 79 77 73 71 73 73 72 72 71 71 71 70 70 70 70 69 69 69 69 69 70 71 70 70 71 70 69 69
76 71 64 57 52 60 64 67 71 69 71 72 71 59 67 68 69 74 77 77 74 73 72 70 71 72 72 71 71 71 70 70 69 69 69 68 68 68 67 68 68 69 70 70 70 69 69 68 68
75 67 51 52 54 62 67 70 71 70 70 70 70 61 61 67 72 76 76 75 71 70 70 70 70 71 71 70 70 70 69 68 68 68 67 67 67 67 66 67 67 68 69 69 69 69 68 68 68
64 63 51 46 56 65 67 69 70 69 71 69 66 62 61 67 70 74 76 73 72 69 68 68 65 67 68 68 68 68 67 67 67 66 66 66 66 66 66 66 66 67 67 68 68 68 68 67 67
64 58 53 52 57 62 65 69 65 66 66 63 69 60 61 64 68 72 73 71 70 69 68 67 67 65 64 64 65 65 65 65 65 65 65 65 64 65 65 65 65 66 66 67 67 67 67 68 67
65 62 51 50 53 58 63 64 68 66 62 68 67 58 58 63 69 70 70 70 68 68 68 67 68 69 64 62 62 63 64 64 65 64 64 63 64 65 64 63 63 65 66 66 67 68 68 68 68
69 55 49 50 53 59 67 62 66 70 61 59 59 57 57 65 67 66 65 65 65 66 66 67 68 66 65 64 62 62 63 63 65 64 63 62 61 62 63 61 63 64 66 66 67 69 69 67 66
61 55 55 58 58 58 62 61 63 62 60 57 57 60 59 62 64 63 63 63 63 63 64 66 68 65 65 70 65 63 65 62 61 60 60 61 61 61 62 60 62 64 63 66 68 68 67 64 61
61 56 58 56 57 60 62 59 61 60 55 55 53 56 56 57 58 60 59 59 63 63 64 67 65 64 63 62 62 60 60 59 59 59 59 60 61 59 59 58 60 62 62 60 62 62 61 61 60
54 62 61 58 57 58 59 63 55 55 53 60 59 60 57 56 57 58 58 59 59 61 64 67 64 63 62 62 62 60 59 58 57 58 59 58 56 56 55 55 57 60 61 62 59 58 60 61 62
53 55 62 60 58 58 59 58 55 54 59 61 61 61 59 59 59 60 61 61 60 60 62 66 64 63 63 62 60 60 58 57 58 58 59 58 55 56 58 59 60 61 61 61 58 58 59 60 61
58 57 56 59 59 59 55 53 58 53 59 59 61 60 59 59 59 62 62 62 59 58 58 63 65 63 63 60 59 58 58 58 58 57 60 61 60 58 58 58 59 59 61 62 61 58 58 58 60
55 51 54 54 56 55 56 49 52 56 58 57 57 54 54 54 55 53 57 57 54 56 58 60 64 64 61 60 59 58 58 59 57 59 60 60 59 58 58 57 58 59 61 61 61 58 59 58 60
50 50 44 53 55 54 52 48 53 57 55 55 55 53 52 51 52 52 55 56 55 56 57 59 63 63 61 59 58 59 58 57 57 58 58 58 59 58 58 57 57 58 59 59 59 60 56 56 56
45 40 42 48 56 53 52 49 53 56 56 54 52 52 52 51 52 52 55 56 56 56 57 57 60 62 61 59 58 57 57 57 58 58 57 57 57 58 57 57 57 58 58 58 59 59 56 54 56
39 40 43 44 53 54 49 48 50 53 54 54 53 51 50 50 51 53 52 55 56 56 57 57 59 61 59 58 57 58 57 56 56 55 55 55 55 56 57 56 56 57 55 54 54 55 54 54 54
52 46 44 49 52 49 50 50 52 52 51 52 53 51 50 49 52 53 52 52 55 55 56 57 58 59 57 57 57 54 53 54 53 53 54 54 54 54 54 54 53 53 54 52 55 52 55 54 52
50 47 45 51 52 46 45 45 53 54 51 52 54 51 50 49 49 52 51 51 51 52 54 55 56 55 57 58 56 55 54 53 53 52 52 53 50 50 52 51 52 52 52 51 52 52 52 52 51
48 46 47 47 48 46 42 40 45 52 53 54 55 55 53 50 48 50 51 49 49 47 48 51 52 55 57 58 57 55 54 53 52 50 50 50 49 49 49 49 49 49 49 51 52 51 48 47 50
44 53 50 49 44 35 44 31 41 48 50 50 53 53 51 50 51 50 50 48 47 46 47 49 50 50 54 56 55 54 52 49 50 48 47 47 48 48 48 48 48 48 49 48 51 51 46 46 42
47 53 49 47 44 41 40 33 38 48 46 48 50 51 50 51 50 48 48 49 47 47 45 46 48 48 49 52 55 53 51 48 47 47 46 46 46 46 47 47 46 46 47 47 47 45 45 45 42
55 49 47 45 41 28 37 33 32 38 46 50 51 51 51 50 49 49 48 47 45 45 46 45 46 45 48 48 49 49 47 47 45 46 44 44 43 43 44 46 45 45 45 45 45 44 43 41 41
49 43 27 29 28 26 42 35 38 48 50 51 50 50 50 49 48 46 44 43 43 43 44 45 44 44 45 45 46 46 46 45 44 44 43 42 41 41 42 43 42 42 43 43 44 42 41 39 38
45 43 31 25 27 30 40 30 39 47 45 46 48 49 50 47 46 44 42 42 42 43 44 43 43 42 43 42 42 43 44 42 43 42 42 41 41 40 41 41 41 42 42 41 42 41 40 38 36
44 38 47 36 32 29 35 41 48 43 41 42 43 47 46 44 43 42 42 42 41 41 42 43 41 41 41 41 40 41 41 41 40 41 42 39 41 42 41 40 40 40 40 40 40 37 37 36 35
46 49 36 36 20 23 32 33 39 41 42 41 42 43 43 43 42 41 40 39 39 40 40 41 40 39 39 39 39 39 39 39 40 40 39 39 39 40 39 39 39 39 38 38 37 36 35 34 34
41 39 42 42 36 29 28 33 41 44 44 41 41 44 42 42 40 38 37 38 38 38 38 39 39 38 38 38 38 38 37 39 39 38 38 38 38 39 38 38 37 37 36 36 35 34 34 32 31
48 44 45 35 31 35 34 35 50 46 47 46 43 43 42 41 39 37 36 36 35 35 36 35 37 37 37 38 37 37 37 38 37 36 37 38 37 38 37 37 37 36 35 35 34 32 32 31 29
MSLP
1010.73 1010.06 1009.91 1009.49 1009.87 1009.19 1008.42 1008.37 1007.88 1008.22 1008.55 1009.02 1009.02 1009.42 1011.34 1012.41 1013.03 1014.98 1015.66 1015.40 1015.73 1016.67 1017.35 1017.80 1018.17 1018.36 1018.68 1018.93 1019.09 1019.10 1019.30 1019.29 1019.28 1019.32 1019.27 1019.16 1019.08 1019.02 1018.93 1018.85 1018.67 1018.38 1018.06 1017.85 1017.70 1017.70 1017.60 1017.59 1017.44
1010.91 1010.40 1010.02 1009.79 1009.89 1009.29 1008.59 1008.56 1008.52 1008.87 1009.32 1009.56 1009.87 1010.65 1011.62 1014.01 1014.20 1015.14 1015.75 1015.53 1015.78 1016.71 1017.18 1017.95 1018.42 1018.72 1018.97 1019.29 1019.38 1019.40 1019.60 1019.60 1019.66 1019.68 1019.59 1019.39 1019.35 1019.30 1019.22 1018.97 1018.76 1018.53 1018.31 1018.03 1018.09 1017.85 1017.77 1017.61 1017.48
1011.13 1010.85 1010.93 1010.68 1010.38 1009.92 1009.17 1008.79 1009.16 1009.52 1009.68 1009.92 1010.94 1011.62 1012.97 1014.71 1014.97 1015.50 1015.62 1015.69 1015.93 1016.47 1017.31 1018.28 1018.76 1019.04 1019.32 1019.51 1019.68 1019.71 1019.86 1019.95 1019.88 1019.94 1019.83 1019.75 1019.70 1019.58 1019.51 1019.30 1019.01 1018.83 1018.54 1018.46 1018.30 1018.03 1018.02 1017.90 1017.73
1010.99 1011.31 1011.85 1011.41 1010.89 1010.58 1009.74 1009.37 1009.54 1009.96 1010.32 1010.52 1011.46 1013.57 1014.94 1016.17 1015.80 1015.90 1016.08 1016.14 1016.90 1017.55 1018.11 1018.75 1019.05 1019.34 1019.70 1019.80 1019.99 1020.06 1020.15 1020.25 1020.23 1020.20 1020.16 1020.14 1020.03 1019.90 1019.77 1019.63 1019.37 1019.17 1018.87 1018.70 1018.48 1018.44 1018.26 1018.09 1017.88
1011.00 1011.24 1012.24 1012.09 1011.63 1011.01 1010.59 1010.27 1010.06 1010.14 1010.45 1011.21 1011.86 1014.40 1015.81 1016.86 1016.60 1016.47 1016.67 1017.02 1017.62 1018.37 1018.89 1019.20 1019.49 1019.77 1020.01 1020.16 1020.29 1020.35 1020.49 1020.53 1020.47 1020.44 1020.36 1020.38 1020.35 1020.28 1020.08 1019.95 1019.72 1019.45 1019.25 1019.07 1018.87 1018.70 1018.52 1018.28 1018.07
1011.22 1011.77 1012.31 1012.42 1012.16 1011.40 1011.33 1011.17 1010.80 1010.58 1011.25 1012.15 1013.30 1014.74 1017.00 1017.32 1016.94 1016.88 1017.09 1017.61 1018.06 1018.79 1019.41 1019.75 1020.11 1020.26 1020.46 1020.50 1020.56 1020.72 1020.80 1020.79 1020.84 1020.74 1020.68 1020.48 1020.57 1020.47 1020.35 1020.19 1020.03 1019.86 1019.63 1019.35 1019.10 1018.88 1018.69 1018.46 1018.22
1011.15 1011.83 1012.38 1012.60 1012.40 1011.91 1012.06 1011.80 1011.81 1011.47 1012.23 1013.49 1013.61 1015.42 1017.66 1017.62 1017.45 1017.38 1017.73 1018.17 1018.80 1019.23 1019.68 1020.08 1020.42 1020.62 1020.83 1020.80 1020.83 1021.00 1021.07 1021.07 1021.01 1020.98 1020.85 1020.77 1020.66 1020.60 1020.56 1020.44 1020.28 1020.06 1019.85 1019.63 1019.38 1019.03 1018.74 1018.42 1018.25
1011.70 1012.05 1013.10 1013.30 1012.90 1012.74 1012.73 1012.63 1012.61 1012.86 1013.93 1014.40 1015.16 1016.47 1018.01 1018.07 1018.04 1018.10 1018.38 1018.79 1019.42 1019.58 1019.87 1020.21 1020.34 1020.46 1020.83 1021.02 1021.09 1021.15 1021.26 1021.26 1021.19 1021.15 1020.92 1020.75 1020.69 1020.65 1020.66 1020.69 1020.48 1020.14 1019.87 1019.63 1019.37 1019.01 1018.70 1018.35 1018.11
1012.26 1012.64 1013.37 1013.66 1013.58 1013.39 1013.11 1013.31 1013.64 1013.88 1015.06 1016.36 1017.49 1018.28 1018.93 1018.46 1018.51 1018.81 1019.16 1019.49 1019.84 1020.07 1020.25 1020.27 1020.30 1020.56 1020.81 1020.98 1021.06 1021.13 1021.23 1021.27 1021.25 1021.35 1021.09 1020.85 1020.86 1020.78 1020.60 1020.57 1020.46 1020.19 1019.90 1019.66 1019.40 1019.02 1018.78 1018.58 1018.35
1012.89 1012.92 1013.32 1014.06 1014.32 1014.22 1014.21 1014.29 1014.53 1015.04 1016.11 1017.48 1018.32 1019.04 1019.18 1019.07 1018.97 1019.26 1019.59 1019.93 1020.22 1020.48 1020.58 1020.50 1020.49 1020.89 1020.93 1020.84 1020.95 1021.06 1021.25 1021.33 1021.48 1021.51 1021.44 1021.09 1020.91 1020.85 1020.73 1020.55 1020.43 1020.31 1020.14 1019.64 1019.29 1019.13 1018.98 1018.83 1018.74
1013.98 1013.83 1014.17 1014.95 1015.03 1014.90 1015.02 1015.43 1015.69 1015.84 1017.38 1018.27 1019.03 1019.63 1019.95 1019.89 1020.01 1020.06 1020.41 1020.57 1020.51 1020.63 1020.82 1020.66 1020.92 1021.12 1021.20 1021.25 1021.27 1021.38 1021.55 1021.67 1021.64 1021.85 1021.55 1021.39 1021.21 1021.13 1021.14 1021.08 1020.89 1020.64 1020.25 1019.92 1019.55 1019.37 1019.20 1019.05 1018.93
1014.84 1014.41 1014.69 1015.33 1015.55 1015.46 1015.59 1015.75 1016.76 1017.11 1018.34 1018.66 1019.22 1019.73 1020.12 1020.24 1020.50 1020.61 1020.71 1020.86 1020.95 1020.93 1020.88 1020.86 1021.16 1021.44 1021.45 1021.37 1021.48 1021.65 1021.96 1022.02 1022.07 1022.07 1021.95 1021.74 1021.90 1021.83 1021.74 1021.60 1021.22 1021.05 1020.66 1020.14 1019.85 1019.61 1019.32 1019.15 1019.02
1015.57 1015.48 1015.30 1015.80 1015.90 1016.28 1016.19 1016.16 1017.03 1018.18 1018.32 1018.82 1019.28 1019.68 1020.19 1020.42 1020.72 1020.80 1020.87 1021.08 1021.16 1021.24 1021.26 1021.15 1021.24 1021.55 1021.59 1021.68 1021.84 1021.95 1022.27 1022.31 1022.40 1022.28 1022.35 1022.23 1022.29 1022.17 1021.85 1021.71 1021.47 1021.16 1020.93 1020.57 1020.22 1019.84 1019.53 1019.28 1019.15
1016.16 1016.10 1016.14 1016.14 1016.33 1016.61 1016.97 1017.44 1017.23 1018.38 1018.29 1018.92 1019.25 1019.72 1020.36 1020.67 1021.02 1020.94 1020.97 1021.29 1021.70 1021.78 1021.70 1021.43 1021.41 1021.65 1021.84 1022.00 1022.20 1022.39 1022.51 1022.46 1022.62 1022.61 1022.61 1022.55 1022.45 1022.30 1022.14 1021.92 1021.71 1021.40 1021.10 1020.80 1020.35 1020.08 1019.76 1019.48 1019.18
1016.73 1016.82 1016.85 1016.94 1016.79 1016.98 1017.29 1017.68 1017.66 1018.07 1018.63 1019.12 1019.36 1020.15 1020.81 1021.31 1021.60 1021.84 1021.80 1022.00 1022.36 1022.42 1022.19 1021.92 1021.80 1021.74 1022.05 1022.26 1022.45 1022.58 1022.70 1022.63 1022.92 1022.94 1022.94 1022.79 1022.69 1022.52 1022.33 1022.26 1021.99 1021.62 1021.23 1020.95 1020.57 1020.36 1020.04 1019.70 1019.37
1016.94 1017.21 1017.35 1017.12 1017.07 1017.34 1017.72 1017.39 1017.76 1018.21 1018.47 1018.73 1019.48 1020.12 1020.80 1021.53 1021.93 1022.18 1022.27 1022.44 1022.75 1022.69 1022.55 1022.32 1022.10 1021.97 1022.28 1022.46 1022.75 1022.81 1022.92 1022.98 1023.33 1023.36 1023.32 1023.28 1022.95 1022.72 1022.55 1022.47 1022.32 1021.82 1021.42 1021.22 1020.99 1020.65 1020.59 1020.24 1019.86
1017.21 1017.42 1017.54 1017.35 1017.28 1017.44 1017.79 1017.56 1017.71 1018.12 1018.34 1018.79 1019.54 1020.43 1020.97 1021.50 1021.94 1022.40 1022.51 1022.63 1022.80 1022.90 1022.92 1022.70 1022.42 1022.33 1022.46 1022.61 1022.94 1023.10 1023.28 1023.48 1023.64 1023.82 1023.85 1023.82 1023.48 1023.15 1022.88 1022.61 1022.58 1022.15 1021.82 1021.57 1021.36 1021.11 1020.90 1020.76 1020.39
1016.82 1017.36 1017.36 1017.24 1017.14 1017.46 1017.66 1017.67 1017.84 1018.12 1018.41 1018.64 1019.23 1020.10 1020.96 1021.42 1021.85 1022.24 1022.59 1022.59 1022.68 1023.02 1023.06 1023.02 1022.76 1022.59 1022.58 1022.73 1022.93 1023.21 1023.80 1024.03 1024.16 1024.43 1024.48 1024.25 1024.03 1023.61 1023.36 1023.17 1023.11 1022.83 1022.68 1022.55 1022.15 1021.85 1021.36 1021.38 1021.06
1016.01 1016.73 1017.03 1016.99 1017.29 1017.57 1017.50 1017.37 1017.28 1017.66 1018.24 1018.51 1018.85 1019.59 1020.49 1021.34 1021.86 1022.27 1022.61 1022.56 1022.47 1022.74 1023.07 1023.14 1023.11 1022.90 1022.82 1022.83 1023.02 1023.61 1024.14 1024.45 1024.68 1024.91 1024.98 1024.69 1024.60 1024.25 1023.96 1023.86 1023.76 1023.44 1023.47 1023.48 1022.97 1022.39 1022.08 1021.90 1021.50
1015.86 1016.23 1016.69 1016.87 1017.13 1017.83 1017.80 1017.32 1016.98 1016.80 1017.14 1017.58 1018.02 1018.77 1019.87 1020.86 1021.61 1021.90 1022.44 1022.65 1022.72 1022.72 1022.99 1023.26 1023.33 1023.31 1023.15 1023.05 1023.29 1023.65 1024.23 1024.70 1024.90 1025.21 1025.41 1025.28 1025.18 1024.97 1024.69 1024.45 1024.34 1024.11 1023.97 1023.82 1023.59 1023.25 1022.93 1023.02 1022.86
1015.69 1015.93 1016.30 1016.85 1017.59 1018.07 1018.16 1016.87 1016.36 1016.01 1016.24 1016.81 1017.17 1017.94 1018.85 1019.96 1020.96 1021.49 1022.12 1022.60 1022.77 1023.18 1023.07 1023.49 1023.51 1023.49 1023.58 1023.32 1023.56 1023.90 1024.31 1024.73 1025.07 1025.44 1025.72 1025.68 1025.63 1025.55 1025.37 1025.05 1024.89 1024.71 1024.46 1024.36 1024.11 1024.04 1024.03 1024.10 1023.95
1015.50 1015.66 1016.33 1016.92 1017.64 1018.23 1018.50 1017.16 1015.41 1015.14 1015.28 1015.74 1016.45 1016.94 1017.82 1018.99 1020.22 1021.11 1021.94 1022.58 1023.12 1023.58 1023.45 1023.58 1023.75 1023.73 1023.74 1023.55 1023.78 1023.93 1024.28 1024.77 1025.36 1025.71 1026.02 1026.02 1026.00 1026.25 1025.93 1025.80 1025.39 1025.40 1025.13 1025.03 1024.73 1024.66 1024.76 1024.81 1025.01
1015.72 1015.90 1016.44 1017.09 1017.68 1018.11 1018.45 1018.66 1015.18 1014.49 1014.90 1015.12 1015.52 1016.42 1017.44 1018.41 1019.60 1020.71 1021.60 1022.38 1023.21 1023.84 1023.93 1023.69 1023.97 1024.03 1023.89 1023.98 1023.95 1024.12 1024.54 1025.07 1025.57 1025.89 1026.02 1026.15 1026.40 1026.71 1026.58 1026.46 1026.07 1026.07 1025.90 1025.80 1025.65 1025.68 1025.54 1025.63 1026.00
1015.67 1016.31 1016.78 1017.34 1017.91 1018.08 1017.48 1017.94 1014.92 1014.37 1014.11 1014.21 1014.89 1015.93 1017.03 1018.13 1019.38 1020.47 1021.55 1022.47 1023.37 1024.02 1024.01 1023.93 1024.06 1024.30 1024.27 1024.38 1024.54 1024.74 1025.07 1025.50 1025.91 1025.98 1026.22 1026.36 1026.86 1027.04 1027.38 1027.05 1026.76 1026.82 1026.71 1026.56 1026.48 1026.56 1026.60 1026.63 1026.84
1016.15 1016.41 1017.30 1017.95 1018.33 1017.62 1016.70 1016.96 1014.58 1013.89 1013.63 1013.70 1014.23 1015.33 1016.64 1018.06 1019.39 1020.54 1021.58 1022.55 1023.54 1023.93 1024.35 1024.05 1024.16 1024.40 1024.54 1024.71 1024.95 1025.25 1025.52 1025.54 1026.10 1026.31 1026.43 1026.64 1027.20 1027.59 1027.88 1027.56 1027.40 1027.49 1027.58 1027.35 1027.12 1027.27 1027.59 1027.70 1027.76
1016.14 1016.47 1016.90 1017.42 1017.86 1017.38 1016.72 1015.25 1013.36 1012.90 1013.22 1013.81 1014.23 1014.81 1016.47 1018.08 1019.36 1020.64 1021.60 1022.66 1023.21 1023.93 1024.40 1024.32 1024.33 1024.56 1024.80 1024.97 1025.49 1025.59 1026.01 1026.20 1026.53 1026.72 1026.68 1027.23 1027.50 1028.02 1028.02 1028.01 1028.02 1028.07 1028.15 1028.19 1028.05 1027.96 1028.32 1028.69 1028.68
1016.03 1016.36 1016.78 1017.36 1017.77 1017.86 1016.33 1014.28 1013.06 1013.05 1013.58 1014.27 1014.82 1015.36 1016.47 1017.95 1019.24 1020.49 1021.60 1022.54 1023.17 1023.66 1024.31 1024.44 1024.77 1024.90 1025.09 1025.33 1025.72 1026.00 1026.39 1026.48 1026.80 1026.99 1027.24 1027.52 1028.00 1028.09 1028.24 1028.23 1028.41 1028.61 1028.49 1028.58 1029.00 1029.04 1029.11 1029.30 1029.55
1015.67 1016.07 1016.92 1017.35 1018.01 1017.15 1015.28 1014.14 1013.11 1013.08 1013.53 1014.37 1015.26 1015.94 1016.99 1018.32 1019.59 1020.80 1021.82 1022.71 1023.34 1023.78 1024.28 1024.53 1024.91 1025.48 1025.59 1025.60 1025.84 1026.49 1026.90 1026.85 1026.88 1027.34 1027.85 1028.28 1028.30 1028.42 1028.54 1028.75 1028.96 1029.17 1029.03 1029.22 1029.30 1029.67 1029.97 1029.93 1030.16
1015.90 1016.05 1016.04 1016.50 1016.85 1016.15 1015.18 1013.44 1012.57 1012.62 1013.14 1014.05 1015.26 1016.17 1017.13 1018.44 1019.63 1020.88 1021.89 1022.85 1023.48 1023.94 1024.35 1024.47 1024.75 1025.53 1026.15 1026.13 1026.24 1026.94 1026.90 1026.99 1027.26 1027.84 1028.25 1028.66 1028.58 1028.66 1028.78 1029.18 1029.24 1029.52 1029.69 1029.67 1029.85 1030.22 1030.49 1030.56 1030.75
1015.37 1015.31 1015.60 1015.55 1015.75 1015.84 1015.57 1012.72 1012.18 1012.10 1012.89 1013.61 1014.89 1016.15 1017.31 1018.35 1019.59 1020.82 1021.83 1022.83 1023.62 1023.92 1024.23 1024.50 1024.93 1025.35 1025.85 1026.28 1026.59 1026.84 1027.11 1027.10 1027.73 1028.06 1028.55 1028.72 1028.82 1028.99 1029.16 1029.44 1029.66 1029.73 1030.01 1030.15 1030.42 1030.71 1030.98 1031.13 1031.33
Wind_Speed
10 7 5 3 1 2 3 4 6 7 5 3 7 12 17 13 7 10 5 3 14 13 10 9 9 10 15 14 14 15 13 14 14 14 14 14 14 15 15 15 14 13 14 14 14 13 14 13 13
8 5 2 1 2 4 3 8 4 10 8 8 9 7 11 9 9 12 6 6 13 12 10 9 9 15 15 14 14 15 13 14 14 14 14 15 15 15 15 15 14 14 14 14 14 14 14 15 15
6 5 2 2 3 4 2 6 11 9 4 3 5 10 7 7 11 4 8 9 11 9 14 12 15 14 15 14 14 14 13 13 14 14 15 15 14 14 15 14 14 14 14 14 13 15 16 15 16
2 2 4 1 2 6 8 8 11 8 6 3 13 9 7 12 4 5 10 14 15 14 14 13 15 15 14 15 14 14 13 13 14 14 15 14 14 14 13 14 14 13 14 13 14 15 16 16 16
1 1 4 3 1 3 7 9 7 6 8 7 5 8 7 4 1 11 11 12 15 13 11 12 15 14 13 14 15 14 13 13 13 14 14 13 14 13 13 13 13 13 14 14 15 16 17 17 17
2 2 3 4 4 4 8 7 6 3 12 9 12 8 5 3 1 8 9 14 13 13 11 11 13 14 13 14 15 14 13 13 13 13 12 11 12 12 13 12 13 13 14 14 15 16 16 14 15
2 2 2 4 7 4 6 5 7 3 11 7 8 7 4 2 2 9 13 14 11 11 9 8 7 11 13 13 13 12 11 11 10 12 10 8 6 8 13 12 12 12 12 13 14 14 15 14 13
4 4 3 2 3 5 3 3 7 10 11 4 9 6 6 2 8 10 12 13 9 8 7 5 4 5 7 5 9 9 7 6 6 6 9 9 4 10 9 9 9 10 9 10 11 13 15 16 11
3 3 4 6 4 6 7 2 6 10 9 7 6 6 5 7 6 9 9 9 7 6 5 4 5 6 6 6 5 6 4 1 9 9 10 7 4 4 5 2 5 8 11 11 11 12 13 12 10
3 2 4 4 3 4 8 8 6 3 10 10 6 9 11 9 3 6 6 6 5 5 4 2 6 5 3 4 4 5 5 4 5 6 6 5 5 4 3 4 5 7 10 14 12 12 10 7 5
5 4 7 4 3 3 6 4 5 8 7 6 5 6 8 9 7 8 7 6 5 6 3 4 6 5 6 4 3 3 3 3 4 6 5 5 4 4 5 5 5 5 7 4 6 5 4 5 4
1 5 6 3 2 2 3 6 6 9 5 4 7 7 5 7 6 5 5 5 4 3 4 6 6 5 5 3 4 4 4 4 3 5 7 5 4 5 4 4 4 4 4 6 5 4 5 5 5
3 5 9 7 8 5 6 7 7 7 8 6 8 7 6 6 4 4 4 5 4 5 4 5 6 5 4 5 4 4 4 3 4 5 6 5 4 4 4 4 4 4 4 6 5 5 5 5 4
2 5 6 2 6 4 4 2 2 3 6 6 7 8 7 8 7 4 5 5 7 5 5 5 6 6 5 5 6 4 3 4 4 4 5 6 4 4 4 4 4 4 4 5 5 5 5 5 3
2 5 4 3 2 3 4 2 2 9 8 8 8 7 7 6 7 7 7 8 6 4 4 6 4 6 6 6 5 4 3 4 4 5 6 6 5 5 5 4 4 4 4 6 5 5 6 5 4
3 4 2 5 3 1 2 4 7 8 8 8 8 7 7 6 4 5 5 6 5 4 4 4 3 5 6 6 5 4 4 5 5 5 4 7 7 6 5 4 5 5 4 4 4 4 4 5 5
1 3 1 1 5 3 5 5 5 6 6 7 7 7 6 6 7 5 5 4 4 4 3 3 3 5 5 6 5 4 7 6 5 6 6 8 8 8 4 5 6 6 5 6 6 4 3 4 7
4 2 4 4 7 7 6 7 5 7 7 8 9 8 6 6 5 6 6 5 5 4 3 2 2 4 5 3 4 4 6 6 6 5 6 7 7 9 7 7 8 7 7 8 8 9 5 6 7
2 6 5 5 4 2 12 12 9 11 8 9 8 8 8 7 6 7 6 5 6 5 4 2 2 2 3 2 3 4 3 4 5 5 7 7 8 9 8 6 6 6 7 8 11 6 7 9 11
2 5 5 2 4 2 7 12 12 10 12 13 10 9 9 8 7 7 7 5 5 6 6 4 4 4 4 2 3 3 3 4 4 4 6 7 8 8 8 7 6 7 6 9 10 9 5 6 9
4 4 4 3 4 3 5 11 13 11 9 10 9 11 10 13 11 9 8 6 6 5 6 5 4 4 1 3 4 5 5 3 3 4 4 6 6 6 6 6 5 5 5 7 7 9 10 6 6
5 6 2 5 3 3 6 8 6 15 17 16 14 12 15 13 11 9 9 7 6 5 4 5 5 4 3 3 4 5 2 4 3 3 3 4 7 7 7 7 7 6 6 7 8 8 5 6 7
1 4 2 3 5 6 6 5 6 6 13 16 17 14 11 13 12 10 9 7 8 5 4 6 5 5 4 5 3 3 6 5 3 3 5 6 7 7 8 7 7 7 6 7 9 9 10 8 7
4 3 2 1 3 4 11 8 5 4 8 10 12 14 14 13 12 9 8 8 6 5 4 5 6 5 4 5 6 5 6 5 3 4 4 5 5 5 7 7 7 7 7 7 8 10 13 10 8
5 4 1 2 2 6 1 8 10 13 7 8 8 15 14 12 11 10 10 8 7 6 5 6 6 6 6 6 6 6 6 7 6 5 4 6 5 5 5 6 7 6 8 8 8 9 11 10 8
10 8 5 4 2 4 2 8 6 3 3 6 4 4 12 11 10 10 9 7 8 7 6 5 6 6 6 6 6 6 6 4 4 4 6 5 5 4 5 6 7 8 8 8 8 7 8 8 7
8 12 9 7 2 1 6 7 9 5 2 1 3 8 13 13 11 11 10 8 7 7 6 6 5 5 6 6 5 5 5 6 5 7 6 5 4 6 6 6 7 6 7 7 8 7 8 7 7
4 1 7 3 3 6 7 8 9 5 7 7 6 8 9 10 10 10 8 8 6 6 5 6 6 5 5 6 6 5 5 6 8 7 7 5 5 5 6 6 6 6 7 7 8 7 7 8 5
4 3 6 7 6 4 3 6 3 4 3 9 8 7 10 11 10 8 7 7 7 6 6 6 8 7 4 5 7 5 5 7 7 6 6 4 5 5 6 6 6 7 7 7 6 8 7 8 7
12 16 14 6 5 7 7 13 6 7 7 8 9 10 8 9 9 9 8 8 7 7 7 7 7 8 7 6 7 7 7 7 7 6 5 4 6 5 6 6 6 7 7 6 7 7 6 7 7
Wind_Direction
292 322 306 265 114 218 199 74 65 94 89 33 42 79 90 41 32 116 61 75 109 107 119 103 108 100 93 86 79 72 60 52 45 39 35 34 32 28 25 20 15 13 15 12 26 16 21 12 5
316 326 274 261 259 210 95 113 159 77 89 91 40 102 53 71 71 106 93 118 114 125 140 118 104 99 93 85 79 74 61 53 45 38 34 35 31 27 22 22 22 19 16 21 21 18 13 14 8
257 28 21 36 347 23 76 120 90 87 85 84 93 43 63 59 41 66 131 128 92 99 90 96 99 96 94 89 80 75 65 54 48 38 35 33 29 28 23 18 19 21 20 19 11 22 18 13 9
296 72 14 75 63 50 32 57 108 119 94 9 104 79 82 24 45 95 82 70 70 77 90 94 95 94 91 87 81 73 65 54 47 41 36 32 29 27 27 20 19 17 20 20 21 18 14 12 9
227 157 56 86 21 38 59 25 335 155 113 75 83 75 78 45 28 112 107 91 95 86 84 83 85 88 87 84 77 71 62 52 48 41 38 35 30 26 26 23 18 19 21 21 18 18 12 10 10
119 3 107 116 184 106 77 5 303 82 89 54 94 95 64 313 154 127 112 101 89 91 85 83 76 77 79 81 74 67 58 51 40 37 34 44 36 33 27 26 19 17 17 17 15 10 4 5 5
227 220 65 146 162 122 63 306 0 359 89 28 327 73 88 46 22 58 97 92 92 94 94 99 105 103 81 78 78 72 63 55 48 37 26 19 21 38 37 23 17 16 13 9 6 5 357 357 355
299 77 107 314 158 105 62 71 359 24 62 112 351 110 142 150 66 78 79 90 93 93 100 103 116 113 104 92 91 88 75 67 48 37 9 344 35 31 59 23 12 10 358 353 359 357 353 348 344
316 177 167 170 174 98 28 111 35 45 66 51 30 50 330 107 88 87 95 92 88 77 63 51 110 89 111 127 128 120 111 77 43 19 8 21 60 16 43 26 348 333 338 332 326 359 10 10 15
314 285 119 83 67 73 62 60 63 121 104 94 83 43 29 32 81 117 115 108 105 97 78 94 80 82 56 78 94 76 46 53 60 31 4 355 34 358 323 275 301 326 325 353 350 17 11 15 9
3 355 110 85 32 354 118 75 19 103 71 38 72 49 41 44 57 66 57 55 56 97 91 78 66 55 75 55 52 47 45 38 54 34 4 360 27 11 28 13 6 357 358 335 343 6 2 19 22
148 61 87 119 13 359 60 112 86 53 92 74 91 85 77 54 57 60 68 62 47 19 86 85 85 74 24 62 48 66 60 38 40 49 8 21 22 24 27 3 1 346 335 342 352 355 350 9 28
71 13 100 83 84 70 43 75 111 95 117 115 119 109 98 85 90 83 95 94 71 97 40 99 101 84 67 52 69 53 53 50 51 41 30 28 28 21 22 18 11 359 349 334 338 353 348 349 47
356 78 29 111 81 82 99 120 193 125 122 127 127 100 69 62 17 87 52 109 74 61 39 2 87 82 68 71 61 64 34 63 54 53 51 38 30 5 4 2 353 360 359 339 329 353 345 340 46
39 117 118 17 38 98 139 174 198 139 176 156 132 114 88 64 45 30 13 60 66 47 19 29 44 85 89 76 68 67 50 63 44 54 27 29 17 2 14 12 356 351 6 2 5 354 353 5 6
88 54 156 148 139 153 189 237 148 163 178 161 147 129 125 112 105 76 38 58 79 72 40 27 357 80 71 73 70 54 39 60 56 46 28 15 15 9 20 12 353 339 356 3 354 353 357 353 359
323 125 180 183 197 142 198 266 136 171 209 171 161 163 149 141 131 124 111 93 83 79 74 17 11 103 94 90 101 80 56 61 52 38 28 16 11 9 16 25 2 353 13 14 3 354 28 7 348
162 172 185 217 195 224 222 247 168 187 215 208 178 157 166 164 143 135 135 128 113 102 85 44 342 120 102 109 114 90 74 63 57 39 31 21 13 17 20 23 17 11 21 15 9 357 12 24 347
29 165 197 220 140 272 242 254 211 190 203 224 189 169 174 174 166 152 156 141 132 119 96 58 115 350 168 168 103 87 91 82 66 51 29 28 24 14 23 28 13 12 32 29 26 355 17 20 358
275 181 212 168 94 150 292 277 265 203 203 204 199 180 175 159 184 168 158 161 139 128 109 55 53 25 20 46 86 112 105 77 94 77 43 32 34 23 30 25 20 26 30 39 29 21 20 21 28
224 252 223 247 140 219 295 272 238 241 191 205 211 187 180 179 187 175 167 164 129 99 107 95 72 77 40 88 94 98 111 129 102 67 54 33 42 27 28 19 19 32 30 45 39 35 35 30 15
246 176 271 283 167 260 137 291 251 225 224 197 206 198 185 174 180 170 174 156 136 126 116 109 78 72 7 360 154 164 151 121 97 100 96 68 42 32 28 19 28 24 39 33 34 39 35 51 31
80 82 135 203 249 275 184 275 272 228 220 211 210 204 186 181 181 173 162 150 129 151 156 115 112 81 28 7 69 115 100 103 124 121 97 82 62 33 29 30 33 37 41 36 53 32 41 43 54
104 164 166 287 240 280 216 178 256 196 231 232 207 204 193 181 173 162 143 127 136 153 153 135 113 103 70 64 47 83 121 132 135 118 96 76 64 50 32 31 41 38 41 39 55 48 50 47 43
159 160 315 266 247 237 185 188 246 282 243 221 204 198 187 174 166 157 144 146 154 164 170 147 131 116 101 91 80 75 80 84 84 84 85 85 67 54 37 39 41 45 43 44 55 62 58 44 44
207 198 178 225 233 307 27 244 259 171 80 42 46 220 156 159 157 153 148 162 161 164 175 140 131 123 108 100 97 85 83 85 79 76 90 80 76 74 55 51 49 50 58 47 50 56 71 50 44
183 219 239 317 350 354 239 257 287 93 107 207 206 149 158 156 155 155 157 166 153 151 167 140 129 128 123 123 106 98 102 105 102 80 76 81 100 94 71 66 62 57 57 61 61 56 58 66 52
254 164 204 232 224 241 245 245 243 220 222 184 190 163 153 151 156 157 155 142 148 152 149 136 133 141 131 111 104 93 96 95 92 94 88 93 91 88 80 69 66 60 62 61 69 63 58 59 60
191 231 236 174 212 226 295 260 239 108 109 181 181 182 160 161 156 149 145 150 161 154 163 147 136 132 132 113 112 124 116 105 99 100 92 100 96 88 86 81 76 70 62 58 75 75 66 70 61
231 218 215 206 224 220 252 257 241 169 151 148 174 170 164 160 154 154 156 164 168 173 169 156 152 148 151 146 139 131 126 114 108 107 110 105 95 86 89 87 80 81 73 67 75 74 66 73 67